TimeCDT,TemperatureF,Dew PointF,Humidity,Sea Level PressureIn,VisibilityMPH,Wind Direction,Wind SpeedMPH,Gust SpeedMPH,PrecipitationIn,Events,Conditions,WindDirDegrees,DateUTC
12:00 AM,-0.4,-4.0,85,30.14,15.0,SE,2.3,-,N/A,,Scattered Clouds,140,2013-09-27 05:00:00
1:00 AM,1,-1,85,30.13,15,Calm,Calm,,,,Scattered Clouds,,2013-09-27 06:00:00
1:00 AM,1.4,-0.4,92,30.13,15.0,SE,2.3,-,N/A,,Partly Cloudy,130,2013-09-27 06:00:00
2:00 AM,1.4,-2.2,85,30.12,15.0,SE,2.3,-,N/A,,Partly Cloudy,140,2013-09-27 07:00:00
3:00 AM,3.2,1.4,92,30.12,15.0,South,2.3,-,N/A,,Mostly Cloudy,180,2013-09-27 08:00:00
4:00 AM,3.2,1.4,92,30.12,15.0,Calm,Calm,-,N/A,,Mostly Cloudy,0,2013-09-27 09:00:00
5:00 AM,6.8,3.2,85,30.11,15.0,Calm,Calm,-,N/A,,Mostly Cloudy,0,2013-09-27 10:00:00
6:00 AM,8.6,5.0,85,30.10,15.0,Calm,Calm,-,N/A,,Mostly Cloudy,0,2013-09-27 11:00:00
7:00 AM,10,8,88,30.09,15,Calm,Calm,,,,Mostly Cloudy,,2013-09-27 12:00:00
7:00 AM,10.4,8.6,92,30.09,15.0,Calm,Calm,-,N/A,,Mostly Cloudy,0,2013-09-27 12:00:00
8:00 AM,12.2,10.4,92,30.08,15.0,Calm,Calm,-,N/A,,Overcast,0,2013-09-27 13:00:00
9:00 AM,14.0,12.2,93,30.06,15.0,Calm,Calm,-,N/A,,Overcast,0,2013-09-27 14:00:00
10:00 AM,17.6,15.8,93,30.06,15.0,SSE,4.6,-,N/A,,Mostly Cloudy,150,2013-09-27 15:00:00
11:00 AM,19.4,17.6,93,30.05,15.0,SSE,8.1,-,N/A,,Overcast,150,2013-09-27 16:00:00
12:00 PM,21.2,19.4,93,30.04,15.0,SE,10.4,-,N/A,,Overcast,130,2013-09-27 17:00:00
1:00 PM,22,20,90,30.04,15,SE,11.5,,,,Overcast,140,2013-09-27 18:00:00
1:00 PM,23.0,21.2,93,30.04,15.0,SE,11.5,-,N/A,,Overcast,140,2013-09-27 18:00:00
2:00 PM,23.0,21.2,93,30.04,15.0,SSE,10.4,-,N/A,,Overcast,150,2013-09-27 19:00:00
3:00 PM,23.0,21.2,93,30.04,15.0,SSE,12.7,-,N/A,,Overcast,160,2013-09-27 20:00:00
4:00 PM,23.0,21.2,93,30.04,15.0,SSE,13.8,-,N/A,,Mostly Cloudy,150,2013-09-27 21:00:00
5:00 PM,24.8,21.2,86,30.05,15.0,SE,13.8,-,N/A,,Mostly Cloudy,140,2013-09-27 22:00:00
6:00 PM,23.0,21.2,93,30.06,15.0,SSE,12.7,-,N/A,,Mostly Cloudy,150,2013-09-27 23:00:00
7:00 PM,22,20,87,30.06,15,SSE,12.7,,,,Scattered Clouds,150,2013-09-28 00:00:00
7:00 PM,21.2,19.4,93,30.06,15.0,SSE,12.7,-,N/A,,Mostly Cloudy,150,2013-09-28 00:00:00
8:00 PM,21.2,19.4,93,30.08,15.0,SSE,10.4,-,N/A,,Mostly Cloudy,150,2013-09-28 01:00:00
9:00 PM,21.2,19.4,93,30.07,15.0,SE,11.5,-,N/A,,Partly Cloudy,140,2013-09-28 02:00:00
10:00 PM,21.2,19.4,93,30.08,15.0,SSE,9.2,-,N/A,,Mostly Cloudy,160,2013-09-28 03:00:00
11:00 PM,23.0,21.2,93,30.09,15.0,SE,5.8,-,N/A,,Overcast,140,2013-09-28 04:00:00